When you browse on this site, cookies collect data to enhance your experience and personalize the content and advertising you see.
Visit our Privacy Policy to learn more. By continuing to use the site, you agree to this use of cookies and data.
  • In Österreich
  • Länderverzeichnis
  • Für 7 Tage
  • Wassertemperatur
  • Wetterkarte
  • News
  • Widgets
  • user-avatar
    Anmelden

    Stündliche Wetter Subachoque

    Heute, 17 November, Sonntag

    Zeit Temperatur Niederschläge Wind Luftdruck Luftfeuchtigkeit
    00:00 +10°C° 0 mm 1 m/S 551 mmHg 92%
    01:00 +10°C° 0 mm 1 m/S 550 mmHg 92%
    02:00 +9°C° 0 mm 1 m/S 550 mmHg 92%
    03:00 +9°C° 0 mm 1 m/S 550 mmHg 91%
    04:00 +9°C° 0 mm 1 m/S 550 mmHg 91%
    05:00 +10°C° 0 mm 1 m/S 551 mmHg 89%
    06:00 +11°C° 0 mm 1 m/S 551 mmHg 87%
    07:00 +12°C° 0 mm 1 m/S 552 mmHg 85%
    08:00 +14°C° 0 mm 1 m/S 553 mmHg 78%
    09:00 +16°C° 0 mm 1 m/S 554 mmHg 71%
    10:00 +19°C° 0 mm 1 m/S 555 mmHg 63%
    11:00 +18°C° 0.1 mm 2 m/S 555 mmHg 64%
    12:00 +18°C° 0.1 mm 2 m/S 554 mmHg 65%
    13:00 +19°C° 0.1 mm 2 m/S 554 mmHg 65%
    14:00 +18°C° 0.4 mm 2 m/S 553 mmHg 72%
    15:00 +17°C° 0.4 mm 2 m/S 552 mmHg 78%
    16:00 +16°C° 0.4 mm 2 m/S 552 mmHg 84%
    17:00 +15°C° 0.3 mm 1 m/S 551 mmHg 88%
    18:00 +13°C° 0.3 mm 1 m/S 551 mmHg 91%
    19:00 +12°C° 0.3 mm 1 m/S 551 mmHg 95%
    20:00 +11°C° 0.1 mm 1 m/S 551 mmHg 94%
    21:00 +11°C° 0.1 mm 1 m/S 551 mmHg 94%
    22:00 +10°C° 0.1 mm 1 m/S 551 mmHg 93%
    23:00 +10°C° 0 mm 1 m/S 551 mmHg 93%

    Morgen, 18 November, Montag

    Zeit Temperatur Niederschläge Wind Luftdruck Luftfeuchtigkeit
    00:00 +10°C° 0 mm 1 m/S 550 mmHg 93%
    01:00 +9°C° 0 mm 1 m/S 550 mmHg 92%
    02:00 +9°C° 0 mm 1 m/S 550 mmHg 92%
    03:00 +9°C° 0 mm 1 m/S 550 mmHg 91%
    04:00 +9°C° 0 mm 1 m/S 549 mmHg 91%
    05:00 +10°C° 0 mm 1 m/S 550 mmHg 89%
    06:00 +11°C° 0 mm 1 m/S 551 mmHg 87%
    07:00 +11°C° 0 mm 1 m/S 552 mmHg 85%
    08:00 +14°C° 0 mm 1 m/S 553 mmHg 77%
    09:00 +16°C° 0 mm 1 m/S 555 mmHg 70%
    10:00 +19°C° 0 mm 1 m/S 556 mmHg 62%
    11:00 +19°C° 0.3 mm 1 m/S 555 mmHg 65%
    12:00 +18°C° 0.3 mm 2 m/S 554 mmHg 69%
    13:00 +18°C° 0.3 mm 2 m/S 553 mmHg 73%
    14:00 +17°C° 0.6 mm 2 m/S 553 mmHg 78%
    15:00 +16°C° 0.6 mm 1 m/S 552 mmHg 83%
    16:00 +15°C° 0.6 mm 1 m/S 552 mmHg 89%
    17:00 +14°C° 0.8 mm 1 m/S 552 mmHg 91%
    18:00 +13°C° 0.8 mm 1 m/S 552 mmHg 93%
    19:00 +11°C° 0.8 mm 0 m/S 551 mmHg 95%
    20:00 +11°C° 0.5 mm 0 m/S 552 mmHg 95%
    21:00 +11°C° 0.5 mm 1 m/S 552 mmHg 94%
    22:00 +11°C° 0.5 mm 1 m/S 552 mmHg 94%
    23:00 +11°C° 0.3 mm 1 m/S 552 mmHg 94%

    übermorgen, 19 November, Dienstag

    Zeit Temperatur Niederschläge Wind Luftdruck Luftfeuchtigkeit
    00:00 +11°C° 0.3 mm 1 m/S 551 mmHg 94%
    01:00 +10°C° 0.3 mm 1 m/S 551 mmHg 94%
    02:00 +10°C° 0 mm 1 m/S 551 mmHg 93%
    03:00 +10°C° 0 mm 1 m/S 551 mmHg 93%
    04:00 +10°C° 0 mm 1 m/S 551 mmHg 93%
    05:00 +11°C° 0 mm 1 m/S 552 mmHg 92%
    06:00 +11°C° 0 mm 1 m/S 552 mmHg 90%
    07:00 +11°C° 0 mm 0 m/S 553 mmHg 88%
    08:00 +13°C° 0.2 mm 1 m/S 554 mmHg 85%
    09:00 +15°C° 0.2 mm 1 m/S 555 mmHg 82%
    10:00 +16°C° 0.2 mm 1 m/S 555 mmHg 79%
    11:00 +16°C° 0.7 mm 1 m/S 555 mmHg 81%
    12:00 +16°C° 0.7 mm 1 m/S 554 mmHg 83%
    13:00 +16°C° 0.7 mm 1 m/S 553 mmHg 85%
    14:00 +15°C° 1.3 mm 1 m/S 553 mmHg 86%
    15:00 +15°C° 1.3 mm 1 m/S 553 mmHg 88%
    16:00 +15°C° 1.3 mm 1 m/S 552 mmHg 90%
    17:00 +14°C° 0.7 mm 1 m/S 552 mmHg 92%
    18:00 +12°C° 0.7 mm 0 m/S 552 mmHg 94%
    19:00 +11°C° 0.7 mm 0 m/S 552 mmHg 95%
    20:00 +11°C° 0.8 mm 0 m/S 553 mmHg 95%
    21:00 +11°C° 0.8 mm 0 m/S 553 mmHg 94%
    22:00 +11°C° 0.8 mm 0 m/S 553 mmHg 94%
    23:00 +10°C° 0.1 mm 0 m/S 553 mmHg 94%

    20 November, Mittwoch

    Zeit Temperatur Niederschläge Wind Luftdruck Luftfeuchtigkeit
    00:00 +10°C° 0.1 mm 0 m/S 552 mmHg 94%
    01:00 +10°C° 0.1 mm 0 m/S 552 mmHg 94%
    02:00 +10°C° 0 mm 0 m/S 552 mmHg 94%
    03:00 +10°C° 0 mm 0 m/S 552 mmHg 94%
    04:00 +10°C° 0 mm 0 m/S 552 mmHg 94%
    05:00 +10°C° 0 mm 0 m/S 552 mmHg 92%
    06:00 +10°C° 0 mm 0 m/S 553 mmHg 91%
    07:00 +11°C° 0 mm 0 m/S 553 mmHg 90%
    08:00 +12°C° 0.3 mm 0 m/S 554 mmHg 86%
    09:00 +15°C° 0.3 mm 1 m/S 555 mmHg 82%
    10:00 +16°C° 0.3 mm 1 m/S 556 mmHg 77%
    11:00 +16°C° 0.9 mm 1 m/S 555 mmHg 79%
    12:00 +16°C° 0.9 mm 1 m/S 554 mmHg 82%
    13:00 +16°C° 0.9 mm 2 m/S 554 mmHg 84%
    14:00 +16°C° 0.8 mm 1 m/S 553 mmHg 86%
    15:00 +15°C° 0.8 mm 1 m/S 553 mmHg 87%
    16:00 +15°C° 0.8 mm 1 m/S 552 mmHg 89%
    17:00 +14°C° 0.6 mm 1 m/S 552 mmHg 91%
    18:00 +13°C° 0.6 mm 1 m/S 552 mmHg 93%
    19:00 +11°C° 0.6 mm 0 m/S 552 mmHg 94%
    20:00 +11°C° 0.2 mm 1 m/S 552 mmHg 94%
    21:00 +11°C° 0.2 mm 1 m/S 552 mmHg 93%
    22:00 +11°C° 0.2 mm 1 m/S 552 mmHg 93%
    23:00 +10°C° 0.1 mm 1 m/S 552 mmHg 93%

    21 November, Donnerstag

    Zeit Temperatur Niederschläge Wind Luftdruck Luftfeuchtigkeit
    00:00 +10°C° 0.1 mm 1 m/S 552 mmHg 93%
    01:00 +10°C° 0.1 mm 1 m/S 551 mmHg 92%
    02:00 +10°C° 0.1 mm 1 m/S 551 mmHg 92%
    03:00 +10°C° 0.1 mm 1 m/S 551 mmHg 92%
    04:00 +9°C° 0.1 mm 0 m/S 551 mmHg 92%
    05:00 +9°C° 0 mm 0 m/S 552 mmHg 91%
    06:00 +10°C° 0 mm 0 m/S 553 mmHg 90%
    07:00 +11°C° 0 mm 0 m/S 553 mmHg 89%
    08:00 +12°C° 0.2 mm 0 m/S 554 mmHg 85%
    09:00 +14°C° 0.2 mm 1 m/S 555 mmHg 81%
    10:00 +16°C° 0.2 mm 1 m/S 555 mmHg 78%
    11:00 +16°C° 0.7 mm 1 m/S 555 mmHg 81%
    12:00 +15°C° 0.7 mm 1 m/S 554 mmHg 84%
    13:00 +15°C° 0.7 mm 1 m/S 553 mmHg 87%
    14:00 +15°C° 0.8 mm 1 m/S 553 mmHg 87%
    15:00 +15°C° 0.8 mm 1 m/S 552 mmHg 87%
    16:00 +15°C° 0.8 mm 1 m/S 552 mmHg 88%
    17:00 +14°C° 0.4 mm 1 m/S 552 mmHg 90%
    18:00 +13°C° 0.4 mm 1 m/S 552 mmHg 93%
    19:00 +12°C° 0.4 mm 1 m/S 551 mmHg 95%
    20:00 +11°C° 0.5 mm 1 m/S 552 mmHg 94%
    21:00 +11°C° 0.5 mm 1 m/S 552 mmHg 93%
    22:00 +11°C° 0.5 mm 1 m/S 552 mmHg 92%
    23:00 +11°C° 0.1 mm 1 m/S 552 mmHg 91%

    22 November, Freitag

    Zeit Temperatur Niederschläge Wind Luftdruck Luftfeuchtigkeit
    00:00 +11°C° 0.1 mm 1 m/S 552 mmHg 91%
    01:00 +11°C° 0.1 mm 1 m/S 551 mmHg 90%
    02:00 +10°C° 0 mm 1 m/S 551 mmHg 91%
    03:00 +9°C° 0 mm 0 m/S 551 mmHg 92%
    04:00 +9°C° 0 mm 0 m/S 550 mmHg 93%
    05:00 +9°C° 0 mm 0 m/S 551 mmHg 92%
    06:00 +10°C° 0 mm 0 m/S 552 mmHg 91%
    07:00 +10°C° 0 mm 0 m/S 553 mmHg 89%
    08:00 +13°C° 0.2 mm 1 m/S 554 mmHg 86%
    09:00 +14°C° 0.2 mm 1 m/S 554 mmHg 83%
    10:00 +16°C° 0.2 mm 1 m/S 555 mmHg 79%
    11:00 +15°C° 0.9 mm 1 m/S 554 mmHg 82%
    12:00 +15°C° 0.9 mm 1 m/S 554 mmHg 85%
    13:00 +15°C° 0.9 mm 1 m/S 553 mmHg 88%
    14:00 +15°C° 0.9 mm 1 m/S 552 mmHg 88%
    15:00 +14°C° 0.9 mm 1 m/S 552 mmHg 88%
    16:00 +14°C° 0.9 mm 1 m/S 551 mmHg 88%
    17:00 +13°C° 0.8 mm 1 m/S 551 mmHg 90%
    18:00 +13°C° 0.8 mm 1 m/S 551 mmHg 92%
    19:00 +11°C° 0.8 mm 0 m/S 551 mmHg 94%
    20:00 +11°C° 0.2 mm 1 m/S 551 mmHg 93%
    21:00 +11°C° 0.2 mm 1 m/S 551 mmHg 93%
    22:00 +10°C° 0.2 mm 1 m/S 552 mmHg 92%
    23:00 +10°C° 0 mm 1 m/S 551 mmHg 92%
    Mehr zeigen